TimePST,TemperatureF,Dew PointF,Humidity,Sea Level PressureIn,VisibilityMPH,Wind Direction,Wind SpeedMPH,Gust SpeedMPH,PrecipitationIn,Events,Conditions,WindDirDegrees,DateUTC
12:56 AM,28.0,19.9,72,29.91,10.0,NNW,17.3,24.2,N/A,,Overcast,330,2013-02-09 08:56:00
1:56 AM,27.0,19.0,72,29.92,10.0,NW,13.8,23.0,N/A,,Mostly Cloudy,320,2013-02-09 09:56:00
2:56 AM,26.1,18.0,71,29.93,10.0,WNW,10.4,-,N/A,,Clear,300,2013-02-09 10:56:00
3:56 AM,25.0,18.0,75,29.94,10.0,WNW,8.1,-,N/A,,Partly Cloudy,300,2013-02-09 11:56:00
4:56 AM,23.0,17.1,78,29.95,10.0,NW,4.6,-,N/A,,Clear,310,2013-02-09 12:56:00
5:56 AM,23.0,17.1,78,29.96,10.0,WNW,10.4,-,N/A,,Mostly Cloudy,290,2013-02-09 13:56:00
6:56 AM,21.0,16.0,81,29.99,10.0,West,9.2,-,N/A,,Partly Cloudy,280,2013-02-09 14:56:00
7:56 AM,21.9,16.0,78,30.01,10.0,Calm,Calm,-,N/A,,Clear,0,2013-02-09 15:56:00
8:56 AM,28.9,17.1,61,30.01,10.0,Calm,Calm,-,N/A,,Clear,0,2013-02-09 16:56:00
9:56 AM,30.9,16.0,54,30.02,10.0,NNW,12.7,-,N/A,,Partly Cloudy,330,2013-02-09 17:56:00
10:56 AM,33.1,17.1,52,30.04,10.0,West,13.8,-,N/A,,Partly Cloudy,280,2013-02-09 18:56:00
11:56 AM,32.0,16.0,52,30.03,10.0,NNW,13.8,-,N/A,,Partly Cloudy,340,2013-02-09 19:56:00
12:56 PM,36.0,18.0,48,30.02,10.0,WNW,11.5,18.4,N/A,,Mostly Cloudy,300,2013-02-09 20:56:00
1:56 PM,35.1,17.1,48,30.02,10.0,NW,10.4,-,N/A,,Partly Cloudy,310,2013-02-09 21:56:00
2:56 PM,34.0,17.1,50,30.03,10.0,WNW,12.7,18.4,N/A,,Partly Cloudy,300,2013-02-09 22:56:00
3:56 PM,35.1,17.1,48,30.02,10.0,Variable,3.5,-,N/A,,Mostly Cloudy,0,2013-02-09 23:56:00
4:56 PM,33.1,17.1,52,30.05,10.0,WNW,4.6,-,N/A,,Clear,300,2013-02-10 00:56:00
5:56 PM,28.9,18.0,64,30.07,10.0,Calm,Calm,-,N/A,,Clear,0,2013-02-10 01:56:00
6:56 PM,28.0,21.0,75,30.08,10.0,Calm,Calm,-,N/A,,Overcast,0,2013-02-10 02:56:00
7:56 PM,30.9,19.9,64,30.08,10.0,WSW,3.5,-,N/A,,Overcast,250,2013-02-10 03:56:00
8:56 PM,32.0,19.9,61,30.06,10.0,Calm,Calm,-,N/A,,Overcast,0,2013-02-10 04:56:00
9:56 PM,30.0,21.9,72,30.07,10.0,Calm,Calm,-,N/A,,Overcast,0,2013-02-10 05:56:00
10:56 PM,30.0,21.9,72,30.07,10.0,Calm,Calm,-,N/A,,Overcast,0,2013-02-10 06:56:00
11:56 PM,28.9,23.0,78,30.08,10.0,SSE,3.5,-,N/A,,Overcast,160,2013-02-10 07:56:00